Date/Time,Expocode,Latitude,Longitude,Depth,version,SOCAT_DOI,QC_Flag,P_sal,Temp,Temperature of Equilibration,Atmospheric Pressure,Equilibrator Pressure (relative),WOA_SSS,NCEP_SLP,ETOPO2_depth,dist_to_land,GVCO2,CO2 Mole Fraction,xCO2water_SST_dry,pCO2 In Water - Equilibrator Temperature,pCO2,fCO2water_equ_wet,fCO2water_SST_wet,fCO2,fCO2rec_src,fCO2  QC Flag,pCO2  QC Flag,P_sal  QC Flag,Temp  QC Flag
2019-12-01T00:42:28.000Z,26NA20191201,68.746,-53.112,,2020.0N,SOCATENHANCEDDOI,B,,20.761,,1002.19,,33.517,991.4,169.0,32.0,,,,,,,,,0,9,9,9,9
2019-12-01T00:46:59.000Z,26NA20191201,68.748,-53.157,,2020.0N,SOCATENHANCEDDOI,B,,2.013,2.68,1002.61,1009.4,33.517,991.4,207.0,33.0,,,,,,,,,0,9,9,9,9
2019-12-01T00:51:53.000Z,26NA20191201,68.74,-53.204,,2020.0N,SOCATENHANCEDDOI,B,,1.983,2.42,1002.18,1009.0,33.517,991.4,266.0,33.0,,,,,,,,,0,9,9,9,9
2019-12-01T00:56:22.000Z,26NA20191201,68.731,-53.245,,2020.0N,SOCATENHANCEDDOI,B,,1.961,2.39,1002.07,1008.6,33.517,991.4,302.0,33.0,,,,,,,,,0,9,9,9,9
2019-12-01T00:57:52.000Z,26NA20191201,68.727,-53.259,,2020.0N,SOCATENHANCEDDOI,B,,1.948,2.36,1002.07,1008.6,33.517,991.4,317.0,34.0,,,,,,,,,0,9,9,9,9
2019-12-01T00:59:22.000Z,26NA20191201,68.724,-53.273,,2020.0N,SOCATENHANCEDDOI,B,,1.944,2.35,1002.04,1008.3,33.517,991.4,337.0,34.0,,,,,,,,,0,9,9,9,9
2019-12-01T01:03:51.000Z,26NA20191201,68.714,-53.314,,2020.0N,SOCATENHANCEDDOI,B,,2.061,2.45,1001.82,1007.9,33.517,991.4,378.0,34.0,,,,,,,,,0,9,9,9,9
2019-12-01T01:05:21.000Z,26NA20191201,68.71,-53.327,,2020.0N,SOCATENHANCEDDOI,B,,2.077,2.44,1001.72,1007.7,33.517,991.4,382.0,34.0,,,,,,,,,0,9,9,9,9
2019-12-01T01:06:51.000Z,26NA20191201,68.706,-53.341,,2020.0N,SOCATENHANCEDDOI,B,,2.05,2.45,1001.68,1007.7,33.517,991.4,387.0,34.0,,,,,,,,,0,9,9,9,9
2019-12-01T01:11:21.000Z,26NA20191201,68.695,-53.382,,2020.0N,SOCATENHANCEDDOI,B,,2.109,2.45,1001.5,1007.3,33.517,991.4,414.0,35.0,,,,,,,,,0,9,9,9,9
2019-12-01T01:12:51.000Z,26NA20191201,68.692,-53.396,,2020.0N,SOCATENHANCEDDOI,B,,2.102,2.47,1001.4,1007.0,33.517,991.4,420.0,35.0,,,,,,,,,0,9,9,9,9
2019-12-01T01:14:21.000Z,26NA20191201,68.689,-53.41,,2020.0N,SOCATENHANCEDDOI,B,,2.102,2.46,1001.28,1007.1,33.517,991.4,425.0,35.0,,,,,,,,,0,9,9,9,9
2019-12-01T01:18:50.000Z,26NA20191201,68.678,-53.452,,2020.0N,SOCATENHANCEDDOI,B,,2.034,2.41,1001.25,1006.6,33.517,991.4,427.0,36.0,,,,,,,,,0,9,9,9,9
2019-12-01T01:20:20.000Z,26NA20191201,68.675,-53.466,,2020.0N,SOCATENHANCEDDOI,B,,2.032,2.4,1001.12,1006.5,33.517,991.4,413.0,36.0,,,,,,,,,0,9,9,9,9
2019-12-01T01:21:50.000Z,26NA20191201,68.672,-53.48,,2020.0N,SOCATENHANCEDDOI,B,,2.041,2.4,1001.1,1006.2,33.517,991.4,392.0,36.0,,,,,,,,,0,9,9,9,9
2019-12-01T01:26:20.000Z,26NA20191201,68.663,-53.522,,2020.0N,SOCATENHANCEDDOI,B,,2.054,2.41,1000.89,1006.1,33.517,991.4,310.0,37.0,,,,,,,,,0,9,9,9,9
2019-12-01T01:27:50.000Z,26NA20191201,68.659,-53.536,,2020.0N,SOCATENHANCEDDOI,B,,2.106,2.44,1000.87,1006.0,33.517,991.4,286.0,37.0,,,,,,,,,0,9,9,9,9
2019-12-01T01:29:19.000Z,26NA20191201,68.656,-53.55,,2020.0N,SOCATENHANCEDDOI,B,,2.128,2.44,1000.69,1006.0,33.517,991.4,262.0,38.0,,,,,,,,,0,9,9,9,9
2019-12-01T01:30:49.000Z,26NA20191201,68.653,-53.564,,2020.0N,SOCATENHANCEDDOI,B,,2.195,2.53,1000.68,1005.9,33.517,991.4,243.0,38.0,,,,,,,,,0,9,9,9,9
2019-12-01T01:32:19.000Z,26NA20191201,68.649,-53.577,,2020.0N,SOCATENHANCEDDOI,B,,2.308,2.55,1000.63,1005.7,33.517,991.4,228.0,38.0,,,,,,,,,0,9,9,9,9
2019-12-01T01:37:14.000Z,26NA20191201,68.638,-53.62,,2020.0N,SOCATENHANCEDDOI,B,,2.502,2.84,1000.51,1004.8,33.517,991.4,277.0,39.0,,400.6,,,388.8,,387.1,387.161,4,2,9,9,9
2019-12-01T01:38:46.000Z,26NA20191201,68.635,-53.634,,2020.0N,SOCATENHANCEDDOI,B,,2.53,2.86,1000.35,1004.6,33.517,991.4,293.0,39.0,,399.2,,,387.4,,385.8,385.768,4,2,9,9,9
2019-12-01T01:40:18.000Z,26NA20191201,68.631,-53.647,,2020.0N,SOCATENHANCEDDOI,B,,2.484,2.88,1000.36,1004.4,33.517,991.4,311.0,40.0,,397.9,,,385.0,,383.4,383.377,4,2,9,9,9
2019-12-01T01:41:50.000Z,26NA20191201,68.627,-53.66,,2020.0N,SOCATENHANCEDDOI,B,,2.429,2.81,1000.37,1004.1,33.517,991.4,336.0,40.0,,397.2,,,384.5,,382.9,382.879,4,2,9,9,9
2019-12-01T01:43:22.000Z,26NA20191201,68.624,-53.673,,2020.0N,SOCATENHANCEDDOI,B,,2.406,2.78,1000.26,1003.8,33.517,991.4,361.0,40.0,,396.9,,,384.2,,382.6,382.58,4,2,9,9,9
2019-12-01T01:45:15.000Z,26NA20191201,68.62,-53.69,,2020.0N,SOCATENHANCEDDOI,B,,2.398,2.77,1000.09,1003.9,33.517,991.4,388.0,41.0,,396.8,,,384.2,,382.5,382.58,4,2,9,9,9
2019-12-01T01:46:48.000Z,26NA20191201,68.616,-53.703,,2020.0N,SOCATENHANCEDDOI,B,,2.369,2.75,1000.02,1003.7,33.517,991.4,408.0,41.0,,396.7,,,383.9,,382.3,382.281,4,2,9,9,9
2019-12-01T01:48:20.000Z,26NA20191201,68.612,-53.715,,2020.0N,SOCATENHANCEDDOI,B,,2.335,2.72,999.9,1003.4,33.517,991.4,424.0,41.0,,396.9,,,383.9,,382.3,382.28,4,2,9,9,9
2019-12-01T01:49:52.000Z,26NA20191201,68.609,-53.727,,2020.0N,SOCATENHANCEDDOI,B,,2.32,2.69,999.83,1003.0,33.517,991.4,439.0,41.0,,397.2,,,384.3,,382.7,382.679,4,2,9,9,9
2019-12-01T01:51:24.000Z,26NA20191201,68.604,-53.737,,2020.0N,SOCATENHANCEDDOI,B,,2.308,2.67,999.86,1002.9,33.517,991.4,440.0,42.0,,397.5,,,384.7,,383.1,383.077,4,2,9,9,9
2019-12-01T01:52:56.000Z,26NA20191201,68.599,-53.744,,2020.0N,SOCATENHANCEDDOI,B,,2.297,2.67,999.78,1002.6,33.517,991.4,426.0,42.0,,397.6,,,384.5,,382.9,382.878,4,2,9,9,9
2019-12-01T01:54:28.000Z,26NA20191201,68.593,-53.75,,2020.0N,SOCATENHANCEDDOI,B,,2.296,2.67,999.6,1002.5,33.517,991.4,401.0,42.0,,397.5,,,384.3,,382.7,382.679,4,2,9,9,9
2019-12-01T01:56:01.000Z,26NA20191201,68.588,-53.755,,2020.0N,SOCATENHANCEDDOI,B,,2.292,2.65,999.45,1002.3,33.517,991.5,375.0,42.0,,397.3,,,384.3,,382.7,382.68,4,2,9,9,9
2019-12-01T01:57:33.000Z,26NA20191201,68.582,-53.76,,2020.0N,SOCATENHANCEDDOI,B,,2.283,2.67,999.48,1002.1,33.517,991.5,357.0,41.0,,397.5,,,384.0,,382.3,382.381,4,2,9,9,9
2019-12-01T01:59:05.000Z,26NA20191201,68.576,-53.764,,2020.0N,SOCATENHANCEDDOI,B,,2.278,2.69,999.34,1001.5,33.517,991.5,370.0,41.0,,397.8,,,383.6,,382.0,381.984,4,2,9,9,9
2019-12-01T02:00:37.000Z,26NA20191201,68.57,-53.768,,2020.0N,SOCATENHANCEDDOI,B,,2.268,2.64,999.31,1001.7,33.517,991.5,385.0,41.0,,398.0,,,384.6,,382.9,382.979,4,2,9,9,9
2019-12-01T02:02:09.000Z,26NA20191201,68.564,-53.772,,2020.0N,SOCATENHANCEDDOI,B,,2.265,2.63,999.17,1001.5,33.517,991.5,403.0,41.0,,398.0,,,384.6,,383.0,382.979,4,2,9,9,9
2019-12-01T02:03:41.000Z,26NA20191201,68.559,-53.777,,2020.0N,SOCATENHANCEDDOI,B,,2.262,2.65,999.11,1001.3,33.517,991.5,424.0,41.0,,397.8,,,384.0,,382.3,382.382,4,2,9,9,9
2019-12-01T02:05:13.000Z,26NA20191201,68.553,-53.782,,2020.0N,SOCATENHANCEDDOI,B,,2.256,2.61,999.05,1001.1,33.517,991.5,448.0,41.0,,397.7,,,384.3,,382.6,382.681,4,2,9,9,9
2019-12-01T02:06:45.000Z,26NA20191201,68.547,-53.787,,2020.0N,SOCATENHANCEDDOI,B,,2.262,2.61,998.96,1001.1,33.517,991.5,465.0,41.0,,397.6,,,384.3,,382.7,382.681,4,2,9,9,9
2019-12-01T02:08:18.000Z,26NA20191201,68.542,-53.792,,2020.0N,SOCATENHANCEDDOI,B,,2.253,2.61,998.95,1000.7,33.517,991.5,475.0,41.0,,397.5,,,383.9,,382.3,382.283,4,2,9,9,9
2019-12-01T02:09:50.000Z,26NA20191201,68.536,-53.797,,2020.0N,SOCATENHANCEDDOI,B,,2.257,2.61,998.85,1000.6,33.517,991.5,487.0,41.0,,397.1,,,383.6,,382.0,381.985,4,2,9,9,9
2019-12-01T02:11:22.000Z,26NA20191201,68.53,-53.802,,2020.0N,SOCATENHANCEDDOI,B,,2.243,2.6,998.72,1000.5,33.517,991.5,501.0,41.0,,397.0,,,383.4,,381.8,381.785,4,2,9,9,9
2019-12-01T02:12:55.000Z,26NA20191201,68.524,-53.808,,2020.0N,SOCATENHANCEDDOI,B,,2.207,2.59,998.77,1000.5,33.517,991.5,519.0,41.0,,397.8,,,383.7,,382.1,382.083,4,2,9,9,9
2019-12-01T02:14:27.000Z,26NA20191201,68.519,-53.813,,2020.0N,SOCATENHANCEDDOI,B,,2.182,2.55,998.67,1000.0,33.517,991.5,538.0,41.0,,398.6,,,384.5,,382.9,382.88,4,2,9,9,9
2019-12-01T02:15:59.000Z,26NA20191201,68.513,-53.818,,2020.0N,SOCATENHANCEDDOI,B,,2.162,2.53,998.63,999.9,33.517,991.5,542.0,41.0,,399.2,,,385.0,,383.4,383.378,4,2,9,9,9
2019-12-01T02:17:31.000Z,26NA20191201,68.507,-53.823,,2020.0N,SOCATENHANCEDDOI,B,,2.118,2.5,998.52,1000.0,33.517,991.5,533.0,41.0,,399.5,,,385.2,,383.6,383.576,4,2,9,9,9
2019-12-01T02:19:03.000Z,26NA20191201,68.501,-53.828,,2020.0N,SOCATENHANCEDDOI,B,,2.106,2.48,998.47,999.9,33.517,991.5,525.0,41.0,,399.5,,,385.3,,383.7,383.675,4,2,9,9,9
2019-12-01T02:20:36.000Z,26NA20191201,68.496,-53.834,,2020.0N,SOCATENHANCEDDOI,B,,2.086,2.45,998.47,999.5,33.517,991.5,519.0,41.0,,399.4,,,385.2,,383.6,383.576,4,2,9,9,9
2019-12-01T02:22:08.000Z,26NA20191201,68.49,-53.839,,2020.0N,SOCATENHANCEDDOI,B,,2.078,2.44,998.45,999.5,33.517,991.5,514.0,41.0,,398.9,,,384.7,,383.1,383.078,4,2,9,9,9
2019-12-01T02:23:40.000Z,26NA20191201,68.485,-53.845,,2020.0N,SOCATENHANCEDDOI,B,,2.075,2.43,998.34,999.4,33.517,991.5,511.0,41.0,,398.4,,,384.3,,382.7,382.68,4,2,9,9,9
2019-12-01T02:25:12.000Z,26NA20191201,68.479,-53.851,,2020.0N,SOCATENHANCEDDOI,B,,2.079,2.44,998.14,999.3,33.517,991.5,504.0,41.0,,398.3,,,384.1,,382.5,382.481,4,2,9,9,9
2019-12-01T02:26:45.000Z,26NA20191201,68.473,-53.856,,2020.0N,SOCATENHANCEDDOI,B,,2.072,2.44,998.13,999.3,33.517,991.5,494.0,42.0,,398.4,,,384.1,,382.5,382.481,4,2,9,9,9
2019-12-01T02:28:17.000Z,26NA20191201,68.468,-53.862,,2020.0N,SOCATENHANCEDDOI,B,,2.126,2.46,998.17,999.1,33.517,991.5,487.0,42.0,,398.3,,,384.5,,382.9,382.88,4,2,9,9,9
2019-12-01T02:29:49.000Z,26NA20191201,68.462,-53.868,,2020.0N,SOCATENHANCEDDOI,B,,2.2,2.52,998.03,999.1,33.517,991.5,482.0,42.0,,398.0,,,384.4,,382.8,382.782,4,2,9,9,9
2019-12-01T02:31:21.000Z,26NA20191201,68.457,-53.874,,2020.0N,SOCATENHANCEDDOI,B,,2.209,2.56,998.09,998.8,33.517,991.5,480.0,42.0,,397.9,,,383.7,,382.0,382.086,4,2,9,9,9
2019-12-01T02:32:53.000Z,26NA20191201,68.451,-53.88,,2020.0N,SOCATENHANCEDDOI,B,,2.214,2.57,997.97,998.7,33.517,991.5,480.0,42.0,,397.9,,,383.5,,381.9,381.887,4,2,9,9,9
2019-12-01T02:34:26.000Z,26NA20191201,68.446,-53.885,,2020.0N,SOCATENHANCEDDOI,B,,2.223,2.58,997.82,998.6,33.517,991.5,475.0,43.0,,398.3,,,383.8,,382.2,382.186,4,2,9,9,9
2019-12-01T02:35:58.000Z,26NA20191201,68.44,-53.891,,2020.0N,SOCATENHANCEDDOI,B,,2.305,2.59,997.85,998.4,33.517,991.5,466.0,43.0,,398.8,,,385.5,,383.9,383.881,4,2,9,9,9
2019-12-01T02:37:30.000Z,26NA20191201,68.435,-53.897,,2020.0N,SOCATENHANCEDDOI,B,,2.461,2.67,997.79,998.4,33.517,991.5,458.0,43.0,,398.4,,,386.3,,384.7,384.681,4,2,9,9,9
2019-12-01T02:39:02.000Z,26NA20191201,68.429,-53.901,,2020.0N,SOCATENHANCEDDOI,B,,2.672,2.9,997.68,998.3,33.517,991.5,448.0,43.0,,397.1,,,384.6,,383.0,382.993,4,2,9,9,9
2019-12-01T02:40:34.000Z,26NA20191201,68.423,-53.906,,2020.0N,SOCATENHANCEDDOI,B,,2.731,3.03,997.65,998.2,33.517,991.5,438.0,43.0,,394.7,,,381.1,,379.5,379.509,4,2,9,9,9
2019-12-01T02:42:06.000Z,26NA20191201,68.417,-53.911,,2020.0N,SOCATENHANCEDDOI,B,,2.762,3.08,997.55,997.9,33.517,991.5,427.0,43.0,,393.0,,,379.0,,377.5,377.419,4,2,9,9,9
2019-12-01T02:43:39.000Z,26NA20191201,68.411,-53.915,,2020.0N,SOCATENHANCEDDOI,B,,2.824,3.11,997.49,998.0,33.517,991.5,423.0,43.0,,392.2,,,378.8,,377.2,377.221,4,2,9,9,9
2019-12-01T02:45:32.000Z,26NA20191201,68.404,-53.92,,2020.0N,SOCATENHANCEDDOI,B,,2.923,3.21,997.46,997.9,33.517,991.5,419.0,43.0,,391.2,,,377.7,,376.2,376.128,4,2,9,9,9
2019-12-01T02:47:04.000Z,26NA20191201,68.398,-53.924,,2020.0N,SOCATENHANCEDDOI,B,,2.917,3.27,997.31,997.9,33.517,991.5,414.0,44.0,,389.3,,,374.9,,373.3,373.339,4,2,9,9,9
2019-12-01T02:48:36.000Z,26NA20191201,68.392,-53.929,,2020.0N,SOCATENHANCEDDOI,B,,2.91,3.26,997.36,997.5,33.517,991.5,411.0,44.0,,388.6,,,374.1,,372.6,372.543,4,2,9,9,9
2019-12-01T02:50:08.000Z,26NA20191201,68.386,-53.933,,2020.0N,SOCATENHANCEDDOI,B,,2.921,3.27,997.29,997.7,33.517,991.5,408.0,44.0,,388.2,,,373.8,,372.3,372.244,4,2,9,9,9
2019-12-01T02:51:40.000Z,26NA20191201,68.381,-53.937,,2020.0N,SOCATENHANCEDDOI,B,,2.907,3.28,997.24,997.7,33.517,991.5,406.0,44.0,,388.0,,,373.2,,371.7,371.646,4,2,9,9,9
2019-12-01T02:53:12.000Z,26NA20191201,68.375,-53.941,,2020.0N,SOCATENHANCEDDOI,B,,2.917,3.26,997.21,997.5,33.517,991.5,405.0,44.0,,388.0,,,373.6,,372.1,372.045,4,2,9,9,9
2019-12-01T02:54:44.000Z,26NA20191201,68.369,-53.945,,2020.0N,SOCATENHANCEDDOI,B,,2.932,3.27,997.18,997.3,33.517,991.5,405.0,44.0,,388.3,,,373.9,,372.3,372.345,4,2,9,9,9
2019-12-01T02:56:16.000Z,26NA20191201,68.363,-53.949,,2020.0N,SOCATENHANCEDDOI,B,,2.665,3.27,997.06,997.0,33.517,991.5,404.0,44.0,,388.7,,,370.0,,368.5,368.456,4,2,9,9,9
2019-12-01T02:57:49.000Z,26NA20191201,68.357,-53.952,,2020.0N,SOCATENHANCEDDOI,B,,2.489,2.97,996.8,997.2,33.517,991.5,399.0,44.0,,389.1,,,372.5,,370.9,370.941,4,2,9,9,9
2019-12-01T02:59:21.000Z,26NA20191201,68.351,-53.956,,2020.0N,SOCATENHANCEDDOI,B,,2.43,2.85,996.93,996.7,33.517,991.5,393.0,44.0,,389.6,,,373.7,,372.1,372.136,4,2,9,9,9
2019-12-01T03:00:53.000Z,26NA20191201,68.345,-53.959,,2020.0N,SOCATENHANCEDDOI,B,,2.427,2.81,996.81,996.9,33.517,991.5,391.0,44.0,,390.0,,,374.8,,373.3,373.231,4,2,9,9,9
2019-12-01T03:02:26.000Z,26NA20191201,68.339,-53.963,,2020.0N,SOCATENHANCEDDOI,B,,2.411,2.79,996.72,996.8,33.517,991.5,391.0,44.0,,390.4,,,375.2,,373.6,373.629,4,2,9,9,9
2019-12-01T03:03:58.000Z,26NA20191201,68.333,-53.967,,2020.0N,SOCATENHANCEDDOI,B,,2.407,2.77,996.68,996.7,33.517,991.5,389.0,44.0,,390.7,,,375.7,,374.1,374.127,4,2,9,9,9
2019-12-01T03:05:30.000Z,26NA20191201,68.327,-53.971,,2020.0N,SOCATENHANCEDDOI,B,,2.407,2.77,996.58,996.8,33.517,991.5,388.0,44.0,,390.9,,,375.9,,374.4,374.326,4,2,9,9,9
2019-12-01T03:07:02.000Z,26NA20191201,68.322,-53.976,,2020.0N,SOCATENHANCEDDOI,B,,2.403,2.77,996.49,996.6,33.517,991.5,386.0,44.0,,391.2,,,376.1,,374.5,374.526,4,2,9,9,9
2019-12-01T03:08:34.000Z,26NA20191201,68.316,-53.98,,2020.0N,SOCATENHANCEDDOI,B,,2.295,2.76,996.45,996.4,33.517,991.5,383.0,44.0,,391.0,,,374.3,,372.7,372.731,4,2,9,9,9
2019-12-01T03:10:07.000Z,26NA20191201,68.31,-53.985,,2020.0N,SOCATENHANCEDDOI,B,,2.245,2.65,996.34,996.0,33.517,991.5,370.0,45.0,,390.7,,,374.8,,373.2,373.229,4,2,9,9,9
2019-12-01T03:11:39.000Z,26NA20191201,68.305,-53.99,,2020.0N,SOCATENHANCEDDOI,B,,2.213,2.62,996.42,996.1,33.517,991.5,358.0,45.0,,391.3,,,375.3,,373.8,373.726,4,2,9,9,9
2019-12-01T03:13:11.000Z,26NA20191201,68.299,-53.995,,2020.0N,SOCATENHANCEDDOI,B,,2.206,2.58,996.03,996.0,33.517,991.5,345.0,45.0,,392.9,,,377.4,,375.9,375.817,4,2,9,9,9
2019-12-01T03:14:43.000Z,26NA20191201,68.293,-54.001,,2020.0N,SOCATENHANCEDDOI,B,,2.233,2.58,996.0,995.8,33.423,991.5,332.0,45.0,,394.5,,,379.3,,377.7,377.71,4,2,9,9,9
2019-12-01T03:16:16.000Z,26NA20191201,68.288,-54.007,,2020.0N,SOCATENHANCEDDOI,B,,2.253,2.59,996.16,995.6,33.423,991.5,320.0,45.0,,395.3,,,380.1,,378.6,378.507,4,2,9,9,9
2019-12-01T03:17:48.000Z,26NA20191201,68.282,-54.013,,2020.0N,SOCATENHANCEDDOI,B,,2.226,2.62,996.08,995.6,33.423,991.5,308.0,45.0,,395.6,,,379.5,,377.9,377.909,4,2,9,9,9
2019-12-01T03:19:20.000Z,26NA20191201,68.277,-54.019,,2020.0N,SOCATENHANCEDDOI,B,,2.324,2.64,995.69,995.6,33.423,991.5,304.0,45.0,,395.8,,,381.0,,379.4,379.405,4,2,9,9,9
2019-12-01T03:20:52.000Z,26NA20191201,68.271,-54.024,,2020.0N,SOCATENHANCEDDOI,B,,2.356,2.68,995.89,995.4,33.423,991.5,298.0,45.0,,395.8,,,380.8,,379.2,379.207,4,2,9,9,9
2019-12-01T03:22:25.000Z,26NA20191201,68.266,-54.031,,2020.0N,SOCATENHANCEDDOI,B,,2.387,2.72,995.89,995.1,33.423,991.5,292.0,45.0,,395.2,,,379.9,,378.3,378.312,4,2,9,9,9
2019-12-01T03:23:57.000Z,26NA20191201,68.26,-54.037,,2020.0N,SOCATENHANCEDDOI,B,,2.371,2.75,995.74,995.0,33.423,991.5,284.0,45.0,,394.6,,,378.5,,377.0,376.917,4,2,9,9,9
2019-12-01T03:25:29.000Z,26NA20191201,68.254,-54.043,,2020.0N,SOCATENHANCEDDOI,B,,2.372,2.74,995.58,995.2,33.423,991.5,275.0,45.0,,394.1,,,378.3,,376.7,376.718,4,2,9,9,9
2019-12-01T03:27:01.000Z,26NA20191201,68.249,-54.049,,2020.0N,SOCATENHANCEDDOI,B,,2.268,2.74,995.63,995.3,33.423,991.5,266.0,45.0,,393.6,,,376.2,,374.7,374.624,4,2,9,9,9
2019-12-01T03:28:33.000Z,26NA20191201,68.243,-54.055,,2020.0N,SOCATENHANCEDDOI,B,,2.158,2.62,995.45,994.7,33.423,991.5,260.0,45.0,,394.5,,,377.0,,375.5,375.42,4,2,9,9,9
2019-12-01T03:30:05.000Z,26NA20191201,68.238,-54.061,,2020.0N,SOCATENHANCEDDOI,B,,2.142,2.54,995.31,994.5,33.423,991.5,256.0,45.0,,397.0,,,380.4,,378.8,378.805,4,2,9,9,9
2019-12-01T03:31:37.000Z,26NA20191201,68.232,-54.066,,2020.0N,SOCATENHANCEDDOI,B,,2.089,2.49,995.27,994.4,33.423,991.5,255.0,45.0,,398.0,,,381.3,,379.7,379.701,4,2,9,9,9
2019-12-01T03:33:09.000Z,26NA20191201,68.227,-54.072,,2020.0N,SOCATENHANCEDDOI,B,,2.137,2.47,995.13,994.1,33.423,991.5,256.0,45.0,,398.9,,,383.1,,381.5,381.495,4,2,9,9,9
2019-12-01T03:34:42.000Z,26NA20191201,68.221,-54.077,,2020.0N,SOCATENHANCEDDOI,B,,2.124,2.49,995.11,994.3,33.423,991.5,260.0,45.0,,399.5,,,383.2,,381.6,381.593,4,2,9,9,9
2019-12-01T03:36:14.000Z,26NA20191201,68.216,-54.082,,2020.0N,SOCATENHANCEDDOI,B,,2.071,2.49,994.92,994.4,33.423,991.5,264.0,45.0,,399.7,,,382.6,,381.0,380.995,4,2,9,9,9
2019-12-01T03:37:46.000Z,26NA20191201,68.21,-54.086,,2020.0N,SOCATENHANCEDDOI,B,,2.05,2.43,994.99,994.0,33.423,991.5,256.0,45.0,,400.2,,,383.6,,382.0,381.991,4,2,9,9,9
2019-12-01T03:39:18.000Z,26NA20191201,68.204,-54.091,,2020.0N,SOCATENHANCEDDOI,B,,1.974,2.42,994.85,993.9,33.423,991.5,248.0,45.0,,400.9,,,383.1,,381.5,381.491,4,2,9,9,9
2019-12-01T03:40:50.000Z,26NA20191201,68.199,-54.096,,2020.0N,SOCATENHANCEDDOI,B,,2.098,2.37,994.77,994.0,33.423,991.5,239.0,45.0,,401.7,,,386.8,,385.2,385.178,4,2,9,9,9
2019-12-01T03:42:23.000Z,26NA20191201,68.193,-54.101,,2020.0N,SOCATENHANCEDDOI,B,,2.03,2.47,994.89,993.6,33.423,991.5,230.0,45.0,,402.6,,,384.7,,383.1,383.086,4,2,9,9,9
2019-12-01T03:43:55.000Z,26NA20191201,68.187,-54.103,,2020.0N,SOCATENHANCEDDOI,B,,1.926,2.38,994.63,993.8,33.423,991.5,220.0,45.0,,403.3,,,385.2,,383.6,383.582,4,2,9,9,9
2019-12-01T03:45:48.000Z,26NA20191201,68.18,-54.104,,2020.0N,SOCATENHANCEDDOI,B,,1.883,2.28,994.41,993.7,33.423,991.5,215.0,45.0,,403.5,,,386.3,,384.7,384.676,4,2,9,9,9
2019-12-01T03:47:20.000Z,26NA20191201,68.174,-54.105,,2020.0N,SOCATENHANCEDDOI,B,,1.915,2.27,994.5,993.8,33.423,991.5,221.0,45.0,,403.1,,,386.7,,385.0,385.075,4,2,9,9,9
2019-12-01T03:48:52.000Z,26NA20191201,68.168,-54.106,,2020.0N,SOCATENHANCEDDOI,B,,1.92,2.29,994.35,993.3,33.423,991.5,227.0,45.0,,402.9,,,386.1,,384.5,384.479,4,2,9,9,9
2019-12-01T03:50:24.000Z,26NA20191201,68.162,-54.107,,2020.0N,SOCATENHANCEDDOI,B,,2.026,2.31,994.47,993.2,33.423,991.5,233.0,45.0,,403.0,,,387.6,,385.9,385.975,4,2,9,9,9
2019-12-01T03:51:56.000Z,26NA20191201,68.156,-54.108,,2020.0N,SOCATENHANCEDDOI,B,,1.996,2.38,994.35,993.0,33.423,991.5,240.0,44.0,,403.5,,,386.3,,384.7,384.68,4,2,9,9,9
2019-12-01T03:53:29.000Z,26NA20191201,68.15,-54.11,,2020.0N,SOCATENHANCEDDOI,B,,1.902,2.34,994.14,993.0,33.423,991.5,247.0,44.0,,404.2,,,386.1,,384.5,384.479,4,2,9,9,9
2019-12-01T03:55:01.000Z,26NA20191201,68.144,-54.111,,2020.0N,SOCATENHANCEDDOI,B,,1.892,2.29,993.99,993.2,33.423,991.5,253.0,44.0,,404.2,,,386.8,,385.2,385.175,4,2,9,9,9
2019-12-01T03:56:33.000Z,26NA20191201,68.138,-54.112,,2020.0N,SOCATENHANCEDDOI,B,,1.898,2.28,993.89,993.1,33.423,991.5,259.0,43.0,,403.7,,,386.6,,385.0,384.976,4,2,9,9,9
2019-12-01T03:58:05.000Z,26NA20191201,68.132,-54.113,,2020.0N,SOCATENHANCEDDOI,B,,1.896,2.27,993.76,992.7,33.423,991.5,265.0,43.0,,403.0,,,385.8,,384.2,384.18,4,2,9,9,9
2019-12-01T03:59:37.000Z,26NA20191201,68.126,-54.114,,2020.0N,SOCATENHANCEDDOI,B,,1.92,2.28,993.86,992.4,33.423,991.5,272.0,43.0,,402.5,,,385.5,,383.8,383.883,4,2,9,9,9
2019-12-01T04:01:09.000Z,26NA20191201,68.12,-54.115,,2020.0N,SOCATENHANCEDDOI,B,,1.949,2.31,993.74,992.2,33.423,991.5,278.0,42.0,,401.7,,,384.7,,383.1,383.087,4,2,9,9,9
2019-12-01T04:02:42.000Z,26NA20191201,68.114,-54.116,,2020.0N,SOCATENHANCEDDOI,B,,2.022,2.34,993.63,992.4,33.423,991.5,279.0,42.0,,401.5,,,385.2,,383.6,383.586,4,2,9,9,9
2019-12-01T04:04:14.000Z,26NA20191201,68.107,-54.117,,2020.0N,SOCATENHANCEDDOI,B,,2.202,2.42,993.52,992.1,33.423,991.5,272.0,42.0,,401.2,,,386.4,,384.8,384.785,4,2,9,9,9
2019-12-01T04:05:47.000Z,26NA20191201,68.101,-54.118,,2020.0N,SOCATENHANCEDDOI,B,,2.357,2.59,993.21,991.9,33.423,991.5,266.0,41.0,,400.8,,,385.6,,384.0,383.992,4,2,9,9,9
2019-12-01T04:07:19.000Z,26NA20191201,68.095,-54.119,,2020.0N,SOCATENHANCEDDOI,B,,2.27,2.69,993.47,991.8,33.423,991.5,259.0,41.0,,399.4,,,381.2,,379.7,379.609,4,2,9,9,9
2019-12-01T04:08:51.000Z,26NA20191201,68.088,-54.12,,2020.0N,SOCATENHANCEDDOI,B,,2.262,2.64,993.35,991.6,33.423,991.5,253.0,41.0,,398.6,,,381.1,,379.5,379.51,4,2,9,9,9
2019-12-01T04:10:23.000Z,26NA20191201,68.082,-54.121,,2020.0N,SOCATENHANCEDDOI,B,,2.349,2.65,993.35,991.7,33.423,991.5,248.0,40.0,,398.7,,,382.5,,380.9,380.905,4,2,9,9,9
2019-12-01T04:14:53.000Z,26NA20191201,68.063,-54.124,,2020.0N,SOCATENHANCEDDOI,B,,2.653,2.96,992.92,991.6,33.423,991.5,243.0,39.0,,,,,,,,,0,9,9,9,9
2019-12-01T04:16:23.000Z,26NA20191201,68.057,-54.125,,2020.0N,SOCATENHANCEDDOI,B,,2.658,3.01,992.97,991.5,33.423,991.5,240.0,39.0,,,,,,,,,0,9,9,9,9
2019-12-01T04:17:53.000Z,26NA20191201,68.051,-54.126,,2020.0N,SOCATENHANCEDDOI,B,,2.253,3.01,992.72,991.4,33.423,991.5,237.0,39.0,,,,,,,,,0,9,9,9,9
2019-12-01T04:22:23.000Z,26NA20191201,68.032,-54.128,,2020.0N,SOCATENHANCEDDOI,B,,2.018,2.42,992.55,991.4,33.423,991.5,215.0,38.0,,,,,,,,,0,9,9,9,9
2019-12-01T04:23:52.000Z,26NA20191201,68.026,-54.129,,2020.0N,SOCATENHANCEDDOI,B,,1.983,2.4,992.48,991.1,33.423,991.5,207.0,37.0,,,,,,,,,0,9,9,9,9
2019-12-01T04:25:22.000Z,26NA20191201,68.02,-54.13,,2020.0N,SOCATENHANCEDDOI,B,,2.042,2.4,992.37,991.0,33.423,991.5,199.0,37.0,,,,,,,,,0,9,9,9,9
2019-12-01T04:29:52.000Z,26NA20191201,68.001,-54.133,,2020.0N,SOCATENHANCEDDOI,B,,2.076,2.46,992.23,991.3,33.423,991.5,161.0,36.0,,,,,,,,,0,9,9,9,9
2019-12-01T04:31:22.000Z,26NA20191201,67.995,-54.134,,2020.0N,SOCATENHANCEDDOI,B,,2.037,2.44,992.19,990.9,32.979,991.5,147.0,36.0,,,,,,,,,0,9,9,9,9
2019-12-01T04:32:52.000Z,26NA20191201,67.989,-54.136,,2020.0N,SOCATENHANCEDDOI,B,,1.968,2.41,991.99,991.5,32.979,991.5,132.0,36.0,,,,,,,,,0,9,9,9,9
2019-12-01T04:37:21.000Z,26NA20191201,67.97,-54.14,,2020.0N,SOCATENHANCEDDOI,B,,1.807,2.2,991.94,991.1,32.979,991.5,118.0,35.0,,,,,,,,,0,9,9,9,9
2019-12-01T04:38:51.000Z,26NA20191201,67.964,-54.141,,2020.0N,SOCATENHANCEDDOI,B,,1.822,2.19,991.81,991.3,32.979,991.5,117.0,34.0,,,,,,,,,0,9,9,9,9
2019-12-01T04:40:21.000Z,26NA20191201,67.958,-54.142,,2020.0N,SOCATENHANCEDDOI,B,,1.822,2.2,991.92,991.1,32.979,991.5,116.0,34.0,,,,,,,,,0,9,9,9,9
2019-12-01T04:44:51.000Z,26NA20191201,67.94,-54.146,,2020.0N,SOCATENHANCEDDOI,B,,1.754,2.17,991.73,991.0,32.979,991.5,106.0,33.0,,,,,,,,,0,9,9,9,9
2019-12-01T04:46:41.000Z,26NA20191201,67.932,-54.148,,2020.0N,SOCATENHANCEDDOI,B,,1.77,2.14,991.65,991.0,32.979,991.5,101.0,33.0,,,,,,,,,0,9,9,9,9
2019-12-01T04:48:11.000Z,26NA20191201,67.926,-54.149,,2020.0N,SOCATENHANCEDDOI,B,,1.765,2.15,991.55,991.0,32.979,991.5,98.0,32.0,,,,,,,,,0,9,9,9,9
2019-12-01T04:49:41.000Z,26NA20191201,67.92,-54.15,,2020.0N,SOCATENHANCEDDOI,B,,1.763,2.15,991.46,991.0,32.979,991.5,94.0,32.0,,,,,,,,,0,9,9,9,9
2019-12-01T04:51:11.000Z,26NA20191201,67.913,-54.151,,2020.0N,SOCATENHANCEDDOI,B,,1.755,2.15,991.44,990.9,32.979,991.5,92.0,32.0,,,,,,,,,0,9,9,9,9
2019-12-01T04:56:06.000Z,26NA20191201,67.893,-54.154,,2020.0N,SOCATENHANCEDDOI,B,,1.825,2.19,991.22,990.6,32.979,991.5,87.0,31.0,,396.4,,,378.9,,377.4,377.311,4,2,9,9,9
2019-12-01T04:57:38.000Z,26NA20191201,67.886,-54.155,,2020.0N,SOCATENHANCEDDOI,B,,1.832,2.2,991.12,990.5,32.979,991.5,86.0,30.0,,395.5,,,377.9,,376.4,376.316,4,2,9,9,9
2019-12-01T04:59:11.000Z,26NA20191201,67.88,-54.156,,2020.0N,SOCATENHANCEDDOI,B,,1.836,2.21,991.02,990.2,32.979,991.5,84.0,30.0,,395.0,,,377.2,,375.7,375.619,4,2,9,9,9
2019-12-01T05:00:43.000Z,26NA20191201,67.874,-54.157,,2020.0N,SOCATENHANCEDDOI,B,,1.835,2.21,990.97,990.4,32.979,991.5,82.0,30.0,,394.8,,,377.2,,375.6,375.619,4,2,9,9,9
2019-12-01T05:02:15.000Z,26NA20191201,67.867,-54.158,,2020.0N,SOCATENHANCEDDOI,B,,1.807,2.21,990.89,990.1,32.979,991.5,79.0,30.0,,394.9,,,376.6,,375.1,375.021,4,2,9,9,9
2019-12-01T05:03:47.000Z,26NA20191201,67.861,-54.159,,2020.0N,SOCATENHANCEDDOI,B,,1.821,2.19,990.83,990.0,32.979,991.5,77.0,29.0,,394.8,,,377.1,,375.5,375.52,4,2,9,9,9